Location: Carrer del Canonge
(41.4901°N, 2.2931°E)
Time: 04:31:22
(UTC+00:00)

ARGOS - Pass Details

Date: 18 September 2020
Orbit: 821 x 834 km, 98.4° (Epoch: 25 October)

Event Time Altitude Azimuth Distance (km) Brightness Sun altitude
Rises 19:12:31 0° 166° (SSE) 3,338 6.0 -15.3°
Reaches altitude 10° 19:14:51 10° 167° (SSE) 2,410 5.3 -15.7°
Maximum altitude 19:20:12 86° 256° (WSW) 830 3.1 -16.6°
Drops below altitude 10° 19:25:36 10° 346° (NNW) 2,432 6.0 -17.6°
Sets 19:27:57 0° 347° (NNW) 3,371 6.8 -18.0°
